| time (UTC) | temp C | wind direction | speed KPH | gust KPH | rain 1hr cm | rain 24hr cm | rain mn cm | humidity % | barometer mb |
| 20260502150128 | 17 | 137 | 0.0 | 3.2 | 0.00 | 0.20 | 0.00 | 71 | 1020.5 |
| 20260502130136 | 12 | 128 | 0.0 | 1.6 | 0.00 | 0.43 | 0.00 | 86 | 1019.5 |
| 20260502120151 | 11 | 138 | 0.0 | 0.0 | 0.00 | 0.51 | 0.00 | 88 | 1018.7 |
| 20260502113049 | 11 | 138 | 0.0 | 1.6 | 0.00 | 0.51 | 0.00 | 87 | 1018.3 |
| 20260502111619 | 11 | 138 | 0.0 | 1.6 | 0.00 | 0.51 | 0.00 | 85 | 1017.9 |
| 20260502110111 | 11 | 138 | 0.0 | 3.2 | 0.00 | 0.58 | 0.00 | 84 | 1017.9 |
| 20260502070020 | 12 | 141 | 0.0 | 3.2 | 0.00 | 0.58 | 0.00 | 90 | 1017.3 |
| 20260502064602 | 11 | 140 | 0.0 | 3.2 | 0.00 | 0.58 | 0.00 | 90 | 1017.4 |
| 20260502063006 | 11 | 138 | 0.0 | 0.0 | 0.00 | 0.58 | 0.00 | 90 | 1017.3 |
| 20260502061508 | 12 | 142 | 0.0 | 0.0 | 0.00 | 0.58 | 0.00 | 91 | 1017.3 |
| 20260502060051 | 12 | 137 | 0.0 | 0.0 | 0.00 | 0.58 | 0.00 | 92 | 1017.3 |
| 20260502054504 | 12 | 146 | 0.0 | 0.0 | 0.00 | 0.58 | 0.00 | 92 | 1017.2 |
| 20260502053055 | 12 | 146 | 0.0 | 0.0 | 0.00 | 0.58 | 0.00 | 92 | 1017.2 |
| 20260502051513 | 12 | 146 | 0.0 | 0.0 | 0.00 | 0.58 | 0.00 | 92 | 1017.1 |
| 20260502050150 | 12 | 146 | 0.0 | 0.0 | 0.00 | 0.58 | 0.58 | 92 | 1017.0 |
| 20260502041506 | 12 | 254 | 0.0 | 0.0 | 0.00 | 0.58 | 0.58 | 91 | 1016.8 |
| 20260502040029 | 12 | 254 | 0.0 | 0.0 | 0.00 | 0.58 | 0.58 | 91 | 1016.9 |
| 20260502034555 | 12 | 254 | 0.0 | 0.0 | 0.00 | 0.58 | 0.58 | 90 | 1016.7 |
| 20260502030159 | 12 | 254 | 0.0 | 0.0 | 0.00 | 0.58 | 0.58 | 89 | 1016.7 |
| 20260502020020 | 13 | 254 | 0.0 | 0.0 | 0.00 | 0.58 | 0.58 | 89 | 1015.8 |
| 20260502014517 | 13 | 255 | 0.0 | 0.0 | 0.00 | 0.58 | 0.58 | 89 | 1016.0 |
| 20260502013056 | 13 | 255 | 0.0 | 0.0 | 0.00 | 0.58 | 0.58 | 88 | 1016.1 |
| 20260502010119 | 13 | 254 | 0.0 | 0.0 | 0.00 | 0.58 | 0.58 | 87 | 1015.9 |
| 20260502004507 | 13 | 255 | 0.0 | 0.0 | 0.00 | 0.58 | 0.58 | 86 | 1014.9 |
| 20260502003044 | 13 | 254 | 0.0 | 0.0 | 0.00 | 0.58 | 0.58 | 85 | 1015.0 |
| 20260502001637 | 13 | 243 | 0.0 | 3.2 | 0.00 | 0.58 | 0.58 | 84 | 1014.7 |
| 20260502000149 | 13 | 258 | 0.0 | 3.2 | 0.00 | 0.58 | 0.58 | 83 | 1014.7 |
| 20260501233123 | 13 | 240 | 1.6 | 6.4 | 0.00 | 0.58 | 0.58 | 80 | 1014.7 |
| 20260501230045 | 13 | 271 | 3.2 | 8.0 | 0.00 | 0.58 | 0.58 | 78 | 1013.7 |
| 20260501221607 | 14 | 237 | 0.0 | 3.2 | 0.00 | 0.58 | 0.58 | 78 | 1013.9 |
| 20260501214606 | 14 | 227 | 3.2 | 8.0 | 0.00 | 0.58 | 0.58 | 77 | 1012.6 |
| 20260501213029 | 14 | 244 | 4.8 | 12.9 | 0.00 | 0.58 | 0.58 | 78 | 1012.3 |
| 20260501201539 | 14 | 264 | 3.2 | 9.7 | 0.00 | 0.61 | 0.58 | 78 | 1014.7 |
| 20260501194557 | 14 | 235 | 3.2 | 16.1 | 0.00 | 0.66 | 0.58 | 80 | 1012.4 |
| 20260501190119 | 12 | 254 | 1.6 | 9.7 | 0.00 | 0.71 | 0.58 | 90 | 1012.9 |
| 20260501184638 | 12 | 67 | 6.4 | 20.9 | 0.03 | 0.71 | 0.58 | 95 | 1013.0 |
| 20260501181520 | 12 | 80 | 1.6 | 16.1 | 0.03 | 0.71 | 0.58 | 95 | 1014.1 |
| 20260501173122 | 11 | 284 | 1.6 | 9.7 | 0.00 | 1.27 | 0.56 | 94 | 1014.9 |